| time (UTC) | temp C | wind direction | speed KPH | gust KPH | rain 1hr cm | rain 24hr cm | rain mn cm | humidity % | barometer mb |
| 20260507110035 | 2 | 272 | 3.2 | 8.0 | 0.00 | 0.61 | 0.00 | 52 | 1008.9 |
| 20260507104535 | 2 | 317 | 4.8 | 8.0 | 0.00 | 0.61 | 0.00 | 52 | 1008.9 |
| 20260507103033 | 2 | 317 | 3.2 | 6.4 | 0.00 | 0.61 | 0.00 | 53 | 1008.7 |
| 20260507101539 | 2 | 318 | 0.0 | 4.8 | 0.00 | 0.61 | 0.00 | 54 | 1008.6 |
| 20260507100045 | 2 | 318 | 1.6 | 6.4 | 0.00 | 0.61 | 0.00 | 54 | 1008.8 |
| 20260507094531 | 2 | 318 | 1.6 | 4.8 | 0.00 | 0.61 | 0.00 | 55 | 1008.8 |
| 20260507093030 | 2 | 318 | 1.6 | 8.0 | 0.00 | 0.61 | 0.00 | 55 | 1008.7 |
| 20260507091530 | 2 | 319 | 1.6 | 6.4 | 0.00 | 0.61 | 0.00 | 56 | 1008.7 |
| 20260507090031 | 2 | 319 | 1.6 | 4.8 | 0.00 | 0.61 | 0.00 | 57 | 1008.6 |
| 20260507084524 | 2 | 319 | 1.6 | 4.8 | 0.00 | 0.61 | 0.00 | 57 | 1008.7 |
| 20260507083021 | 2 | 319 | 0.0 | 3.2 | 0.00 | 0.61 | 0.00 | 57 | 1008.7 |
| 20260507081521 | 2 | 319 | 0.0 | 1.6 | 0.00 | 0.61 | 0.00 | 57 | 1008.6 |
| 20260507080017 | 2 | 319 | 0.0 | 3.2 | 0.00 | 0.61 | 0.00 | 57 | 1008.8 |
| 20260507074514 | 3 | 319 | 0.0 | 3.2 | 0.00 | 0.61 | 0.00 | 57 | 1008.8 |
| 20260507073011 | 3 | 319 | 0.0 | 4.8 | 0.00 | 0.61 | 0.00 | 57 | 1008.9 |
| 20260507071511 | 3 | 319 | 1.6 | 4.8 | 0.00 | 0.61 | 0.00 | 56 | 1008.9 |
| 20260507070009 | 4 | 319 | 0.0 | 4.8 | 0.00 | 0.61 | 0.00 | 55 | 1008.9 |
| 20260507064503 | 4 | 319 | 0.0 | 0.0 | 0.00 | 0.61 | 0.00 | 55 | 1008.8 |
| 20260507063100 | 4 | 319 | 0.0 | 0.0 | 0.00 | 0.61 | 0.00 | 55 | 1008.8 |
| 20260507061600 | 5 | 319 | 0.0 | 0.0 | 0.00 | 0.61 | 0.00 | 54 | 1009.0 |
| 20260507060059 | 5 | 319 | 0.0 | 4.8 | 0.00 | 0.61 | 0.00 | 54 | 1009.2 |
| 20260507054556 | 5 | 319 | 1.6 | 4.8 | 0.00 | 0.61 | 0.00 | 54 | 1009.3 |
| 20260507053055 | 5 | 319 | 3.2 | 6.4 | 0.00 | 0.61 | 0.00 | 53 | 1009.5 |
| 20260507051553 | 5 | 315 | 1.6 | 6.4 | 0.00 | 0.61 | 0.00 | 52 | 1009.5 |
| 20260507050051 | 5 | 323 | 4.8 | 8.0 | 0.00 | 0.61 | 0.00 | 50 | 1009.6 |
| 20260507044550 | 5 | 322 | 1.6 | 12.9 | 0.00 | 0.61 | 0.00 | 49 | 1009.6 |
| 20260507043047 | 5 | 321 | 4.8 | 8.0 | 0.00 | 0.61 | 0.00 | 49 | 1009.4 |
| 20260507041547 | 5 | 322 | 4.8 | 8.0 | 0.00 | 0.61 | 0.00 | 49 | 1009.3 |
| 20260507040043 | 5 | 327 | 3.2 | 6.4 | 0.00 | 0.61 | 0.61 | 49 | 1009.3 |
| 20260507034544 | 5 | 327 | 4.8 | 8.0 | 0.00 | 0.61 | 0.61 | 49 | 1009.2 |
| 20260507033040 | 5 | 328 | 6.4 | 9.7 | 0.00 | 0.61 | 0.61 | 49 | 1009.1 |
| 20260507031539 | 5 | 328 | 4.8 | 9.7 | 0.00 | 0.61 | 0.61 | 49 | 1009.0 |
| 20260507030039 | 5 | 328 | 6.4 | 16.1 | 0.00 | 0.61 | 0.61 | 49 | 1009.0 |
| 20260507024537 | 5 | 334 | 6.4 | 14.5 | 0.00 | 0.61 | 0.61 | 49 | 1008.8 |
| 20260507023040 | 6 | 329 | 9.7 | 19.3 | 0.00 | 0.61 | 0.61 | 48 | 1008.9 |
| 20260507021532 | 6 | 348 | 6.4 | 14.5 | 0.00 | 0.61 | 0.61 | 48 | 1008.9 |
| 20260507020036 | 6 | 344 | 3.2 | 14.5 | 0.00 | 0.61 | 0.61 | 48 | 1008.9 |
| 20260507014541 | 6 | 351 | 8.0 | 19.3 | 0.00 | 0.61 | 0.61 | 49 | 1009.0 |
| 20260507013028 | 6 | 330 | 6.4 | 20.9 | 0.00 | 0.61 | 0.61 | 49 | 1008.7 |
| 20260507011528 | 6 | 350 | 11.3 | 20.9 | 0.00 | 0.61 | 0.61 | 49 | 1008.7 |
| 20260507010026 | 7 | 339 | 11.3 | 17.7 | 0.00 | 0.61 | 0.61 | 50 | 1008.7 |
| 20260507004533 | 7 | 339 | 11.3 | 20.9 | 0.00 | 0.61 | 0.61 | 50 | 1008.3 |
| 20260507003025 | 7 | 329 | 11.3 | 19.3 | 0.00 | 0.61 | 0.61 | 50 | 1008.2 |
| 20260507001525 | 7 | 325 | 14.5 | 25.7 | 0.00 | 0.61 | 0.61 | 51 | 1007.9 |
| 20260507000025 | 8 | 312 | 17.7 | 24.1 | 0.00 | 0.61 | 0.61 | 49 | 1007.8 |
| 20260506234529 | 8 | 314 | 14.5 | 20.9 | 0.00 | 0.61 | 0.61 | 49 | 1007.5 |
| 20260506233015 | 8 | 321 | 11.3 | 19.3 | 0.00 | 0.61 | 0.61 | 48 | 1007.3 |
| 20260506231528 | 8 | 277 | 4.8 | 11.3 | 0.00 | 0.61 | 0.61 | 48 | 1007.1 |
| 20260506230011 | 8 | 355 | 3.2 | 6.4 | 0.00 | 0.64 | 0.61 | 47 | 1006.9 |
| 20260506224510 | 8 | 355 | 3.2 | 8.0 | 0.00 | 0.64 | 0.61 | 46 | 1006.8 |
| 20260506223007 | 8 | 356 | 0.0 | 3.2 | 0.00 | 0.64 | 0.61 | 46 | 1006.6 |
| 20260506221506 | 8 | 356 | 0.0 | 3.2 | 0.00 | 0.64 | 0.61 | 46 | 1006.5 |
| 20260506220006 | 8 | 356 | 0.0 | 6.4 | 0.00 | 0.64 | 0.61 | 46 | 1006.4 |
| 20260506214505 | 8 | 356 | 0.0 | 4.8 | 0.00 | 0.64 | 0.61 | 45 | 1006.3 |
| 20260506213004 | 8 | 356 | 0.0 | 4.8 | 0.00 | 0.64 | 0.61 | 44 | 1006.4 |
| 20260506211509 | 8 | 356 | 0.0 | 6.4 | 0.00 | 0.64 | 0.61 | 44 | 1006.3 |
| 20260506210002 | 8 | 356 | 3.2 | 8.0 | 0.00 | 0.64 | 0.61 | 44 | 1006.3 |
| 20260506204502 | 8 | 356 | 3.2 | 8.0 | 0.00 | 0.64 | 0.61 | 44 | 1006.3 |
| 20260506203001 | 8 | 357 | 3.2 | 8.0 | 0.00 | 0.64 | 0.61 | 44 | 1006.1 |
| 20260506201610 | 7 | 357 | 1.6 | 6.4 | 0.00 | 0.64 | 0.61 | 44 | 1006.3 |
| 20260506194614 | 7 | 358 | 3.2 | 8.0 | 0.00 | 0.64 | 0.61 | 45 | 1006.2 |
| 20260506193056 | 7 | 358 | 1.6 | 6.4 | 0.00 | 0.64 | 0.61 | 45 | 1005.9 |
| 20260506191556 | 7 | 357 | 4.8 | 12.9 | 0.03 | 0.64 | 0.61 | 45 | 1005.9 |
| 20260506190056 | 7 | 360 | 6.4 | 16.1 | 0.03 | 0.64 | 0.61 | 45 | 1006.0 |
| 20260506184607 | 7 | 353 | 8.0 | 14.5 | 0.03 | 0.64 | 0.61 | 45 | 1005.9 |
| 20260506183101 | 7 | 352 | 9.7 | 16.1 | 0.03 | 0.64 | 0.61 | 45 | 1005.8 |
| 20260506181553 | 7 | 360 | 6.4 | 14.5 | 0.00 | 0.61 | 0.58 | 45 | 1005.6 |
| 20260506180054 | 7 | 360 | 6.4 | 16.1 | 0.00 | 0.61 | 0.58 | 45 | 1005.6 |
| 20260506174552 | 7 | 3 | 6.4 | 12.9 | 0.00 | 0.61 | 0.58 | 45 | 1005.7 |
| 20260506173052 | 7 | 9 | 1.6 | 8.0 | 0.00 | 0.61 | 0.58 | 45 | 1005.4 |
| 20260506171549 | 7 | 9 | 3.2 | 6.4 | 0.00 | 0.61 | 0.58 | 45 | 1005.2 |
| 20260506170106 | 7 | 9 | 3.2 | 12.9 | 0.00 | 0.61 | 0.58 | 45 | 1004.9 |
| 20260506164545 | 7 | 26 | 1.6 | 14.5 | 0.00 | 0.61 | 0.58 | 45 | 1004.8 |
| 20260506163054 | 7 | 38 | 1.6 | 6.4 | 0.00 | 0.61 | 0.58 | 44 | 1004.9 |
| 20260506161544 | 7 | 37 | 3.2 | 12.9 | 0.00 | 0.61 | 0.58 | 45 | 1004.7 |
| 20260506160043 | 7 | 140 | 0.0 | 9.7 | 0.03 | 0.61 | 0.58 | 45 | 1004.8 |
| 20260506154543 | 7 | 140 | 0.0 | 8.0 | 0.05 | 0.61 | 0.58 | 45 | 1004.6 |
| 20260506153041 | 7 | 140 | 1.6 | 8.0 | 0.05 | 0.61 | 0.58 | 45 | 1004.7 |
| 20260506151544 | 7 | 140 | 0.0 | 8.0 | 0.08 | 0.61 | 0.58 | 45 | 1004.6 |
| 20260506150039 | 6 | 140 | 1.6 | 8.0 | 0.05 | 0.58 | 0.56 | 45 | 1004.5 |
| 20260506144550 | 6 | 140 | 1.6 | 8.0 | 0.03 | 0.56 | 0.53 | 45 | 1004.5 |
| 20260506143038 | 6 | 140 | 1.6 | 8.0 | 0.03 | 0.56 | 0.53 | 46 | 1004.1 |
| 20260506141537 | 6 | 140 | 0.0 | 9.7 | 0.03 | 0.53 | 0.51 | 46 | 1003.8 |
| 20260506140038 | 6 | 140 | 1.6 | 6.4 | 0.03 | 0.53 | 0.51 | 46 | 1003.7 |
| 20260506134536 | 6 | 140 | 1.6 | 8.0 | 0.05 | 0.53 | 0.51 | 46 | 1003.8 |
| 20260506133035 | 6 | 140 | 1.6 | 4.8 | 0.05 | 0.53 | 0.51 | 46 | 1003.6 |
| 20260506131535 | 6 | 133 | 3.2 | 12.9 | 0.05 | 0.51 | 0.48 | 46 | 1003.5 |
| 20260506130034 | 6 | 113 | 4.8 | 14.5 | 0.10 | 0.51 | 0.48 | 46 | 1003.5 |
| 20260506124532 | 6 | 138 | 1.6 | 12.9 | 0.10 | 0.48 | 0.46 | 46 | 1003.6 |
| 20260506123032 | 6 | 136 | 3.2 | 17.7 | 0.13 | 0.48 | 0.46 | 46 | 1003.7 |
| 20260506121529 | 6 | 134 | 3.2 | 11.3 | 0.13 | 0.46 | 0.43 | 46 | 1003.7 |
| 20260506120038 | 6 | 132 | 1.6 | 14.5 | 0.10 | 0.41 | 0.38 | 46 | 1003.8 |
| 20260506114526 | 6 | 136 | 6.4 | 17.7 | 0.13 | 0.38 | 0.36 | 46 | 1003.4 |
| 20260506113029 | 6 | 116 | 3.2 | 14.5 | 0.18 | 0.36 | 0.33 | 46 | 1003.2 |
| 20260506111522 | 6 | 115 | 6.4 | 17.7 | 0.30 | 0.33 | 0.30 | 46 | 1002.9 |